• în Republica Moldova
  • Lista ţărilor
  • Pe 7 zile
  • Temperatura apei
  • Hartă satelitară
  • Meteo pe hartă
  • Widget-uri
  • user-avatar
    Intrare

    Meteo pe oră la Grabowszczyzna

    Astăzi, 24 Septembrie, Luni

    Timp Temperatura Precipitaţii Vânt Presiune Umiditate
    00:00 +10°C° 3.1 mm 5 m/s 739 mmHg 88%
    01:00 +9°C° 3.1 mm 5 m/s 737 mmHg 90%
    02:00 +10°C° 0 mm 5 m/s 735 mmHg 94%
    03:00 +10°C° 1.7 mm 6 m/s 735 mmHg 93%
    04:00 +11°C° 1.7 mm 7 m/s 735 mmHg 92%
    05:00 +12°C° 1.7 mm 8 m/s 735 mmHg 91%
    06:00 +10°C° 0.4 mm 9 m/s 736 mmHg 89%
    07:00 +8°C° 0.4 mm 9 m/s 738 mmHg 87%
    08:00 +7°C° 0 mm 10 m/s 739 mmHg 85%
    09:00 +7°C° 0.2 mm 10 m/s 740 mmHg 82%
    10:00 +7°C° 0.2 mm 9 m/s 741 mmHg 80%
    11:00 +8°C° 0.2 mm 9 m/s 742 mmHg 78%
    12:00 +8°C° 0.3 mm 9 m/s 743 mmHg 75%
    13:00 +9°C° 0.3 mm 10 m/s 744 mmHg 72%
    14:00 +11°C° 0.3 mm 10 m/s 744 mmHg 68%
    15:00 +10°C° 0.2 mm 9 m/s 745 mmHg 68%
    16:00 +10°C° 0.2 mm 8 m/s 745 mmHg 68%
    17:00 +10°C° 0.2 mm 8 m/s 745 mmHg 68%
    18:00 +9°C° 0.1 mm 7 m/s 746 mmHg 70%
    19:00 +9°C° 0.1 mm 7 m/s 746 mmHg 73%
    20:00 +8°C° 0.1 mm 6 m/s 747 mmHg 75%
    21:00 +7°C° 0 mm 6 m/s 747 mmHg 75%
    22:00 +7°C° 0 mm 6 m/s 748 mmHg 76%
    23:00 +5°C° 0 mm 6 m/s 748 mmHg 76%

    Mâine, 25 Septembrie, Marţi

    Timp Temperatura Precipitaţii Vânt Presiune Umiditate
    00:00 +5°C° 0 mm 6 m/s 749 mmHg 77%
    01:00 +5°C° 0 mm 6 m/s 750 mmHg 77%
    02:00 +4°C° 0 mm 6 m/s 750 mmHg 78%
    03:00 +4°C° 0 mm 6 m/s 751 mmHg 78%
    04:00 +4°C° 0 mm 6 m/s 751 mmHg 79%
    05:00 +5°C° 0 mm 5 m/s 752 mmHg 79%
    06:00 +4°C° 0 mm 6 m/s 752 mmHg 77%
    07:00 +5°C° 0 mm 6 m/s 753 mmHg 75%
    08:00 +5°C° 0 mm 6 m/s 754 mmHg 73%
    09:00 +6°C° 0 mm 7 m/s 754 mmHg 67%
    10:00 +9°C° 0 mm 7 m/s 755 mmHg 62%
    11:00 +10°C° 0 mm 7 m/s 755 mmHg 56%
    12:00 +10°C° 0.2 mm 7 m/s 755 mmHg 56%
    13:00 +10°C° 0.2 mm 7 m/s 756 mmHg 55%
    14:00 +10°C° 0.2 mm 7 m/s 756 mmHg 54%
    15:00 +10°C° 0.1 mm 7 m/s 756 mmHg 56%
    16:00 +10°C° 0.1 mm 7 m/s 757 mmHg 58%
    17:00 +9°C° 0.1 mm 6 m/s 757 mmHg 59%
    18:00 +8°C° 0 mm 5 m/s 758 mmHg 63%
    19:00 +7°C° 0 mm 5 m/s 759 mmHg 66%
    20:00 +6°C° 0 mm 4 m/s 759 mmHg 70%
    21:00 +6°C° 0 mm 4 m/s 760 mmHg 71%
    22:00 +5°C° 0 mm 4 m/s 760 mmHg 72%
    23:00 +5°C° 0 mm 4 m/s 761 mmHg 73%

    Poimâine, 26 Septembrie, Miercuri

    Timp Temperatura Precipitaţii Vânt Presiune Umiditate
    00:00 +4°C° 0 mm 4 m/s 761 mmHg 75%
    01:00 +4°C° 0 mm 3 m/s 762 mmHg 77%
    02:00 +4°C° 0 mm 3 m/s 762 mmHg 79%
    03:00 +3°C° 0 mm 3 m/s 762 mmHg 80%
    04:00 +3°C° 0 mm 3 m/s 762 mmHg 81%
    05:00 +4°C° 0 mm 2 m/s 762 mmHg 83%
    06:00 +3°C° 0 mm 3 m/s 762 mmHg 78%
    07:00 +4°C° 0 mm 3 m/s 763 mmHg 73%
    08:00 +5°C° 0 mm 3 m/s 763 mmHg 69%
    09:00 +7°C° 0 mm 4 m/s 762 mmHg 63%
    10:00 +8°C° 0 mm 4 m/s 762 mmHg 57%
    11:00 +10°C° 0 mm 5 m/s 762 mmHg 51%
    12:00 +12°C° 0 mm 5 m/s 761 mmHg 50%
    13:00 +13°C° 0 mm 6 m/s 761 mmHg 49%
    14:00 +13°C° 0 mm 6 m/s 760 mmHg 48%
    15:00 +13°C° 0 mm 6 m/s 760 mmHg 50%
    16:00 +12°C° 0 mm 5 m/s 759 mmHg 52%
    17:00 +12°C° 0 mm 5 m/s 759 mmHg 54%
    18:00 +12°C° 0 mm 5 m/s 758 mmHg 54%
    19:00 +10°C° 0 mm 5 m/s 758 mmHg 55%
    20:00 +10°C° 0 mm 5 m/s 758 mmHg 55%
    21:00 +10°C° 0 mm 6 m/s 757 mmHg 55%
    22:00 +10°C° 0 mm 6 m/s 757 mmHg 56%
    23:00 +10°C° 0 mm 6 m/s 757 mmHg 56%

    27 Septembrie, Joi

    Timp Temperatura Precipitaţii Vânt Presiune Umiditate
    00:00 +10°C° 0 mm 6 m/s 756 mmHg 55%
    01:00 +10°C° 0 mm 7 m/s 756 mmHg 54%
    02:00 +11°C° 0 mm 7 m/s 755 mmHg 53%
    03:00 +11°C° 0 mm 7 m/s 755 mmHg 53%
    04:00 +10°C° 0 mm 7 m/s 754 mmHg 53%
    05:00 +10°C° 0 mm 7 m/s 754 mmHg 54%
    06:00 +10°C° 0 mm 7 m/s 754 mmHg 56%
    07:00 +10°C° 0 mm 7 m/s 754 mmHg 59%
    08:00 +10°C° 0 mm 7 m/s 754 mmHg 61%
    09:00 +12°C° 0 mm 8 m/s 754 mmHg 61%
    10:00 +13°C° 0 mm 8 m/s 754 mmHg 61%
    11:00 +16°C° 0 mm 8 m/s 754 mmHg 61%
    12:00 +16°C° 0 mm 8 m/s 753 mmHg 60%
    13:00 +17°C° 0 mm 8 m/s 753 mmHg 60%
    14:00 +18°C° 0 mm 8 m/s 753 mmHg 60%
    15:00 +18°C° 0 mm 7 m/s 753 mmHg 62%
    16:00 +18°C° 0 mm 7 m/s 753 mmHg 64%
    17:00 +17°C° 0 mm 6 m/s 752 mmHg 66%
    18:00 +16°C° 0 mm 6 m/s 753 mmHg 69%
    19:00 +16°C° 0 mm 5 m/s 753 mmHg 73%
    20:00 +15°C° 0 mm 5 m/s 753 mmHg 76%
    21:00 +14°C° 0 mm 5 m/s 753 mmHg 78%
    22:00 +14°C° 0 mm 5 m/s 753 mmHg 80%
    23:00 +14°C° 0 mm 4 m/s 753 mmHg 83%

    28 Septembrie, Vineri

    Timp Temperatura Precipitaţii Vânt Presiune Umiditate
    00:00 +13°C° 0 mm 4 m/s 752 mmHg 85%
    01:00 +13°C° 0 mm 4 m/s 752 mmHg 87%
    02:00 +12°C° 0 mm 4 m/s 752 mmHg 90%
    03:00 +12°C° 0 mm 4 m/s 751 mmHg 90%
    04:00 +12°C° 0 mm 4 m/s 751 mmHg 91%
    05:00 +12°C° 0 mm 5 m/s 751 mmHg 92%
    06:00 +13°C° 0 mm 5 m/s 750 mmHg 89%
    07:00 +13°C° 0 mm 6 m/s 750 mmHg 86%
    08:00 +14°C° 0 mm 6 m/s 750 mmHg 83%
    09:00 +15°C° 0 mm 6 m/s 750 mmHg 77%
    10:00 +17°C° 0 mm 6 m/s 750 mmHg 71%
    11:00 +18°C° 0 mm 7 m/s 750 mmHg 66%
    12:00 +19°C° 0 mm 6 m/s 749 mmHg 65%
    13:00 +20°C° 0 mm 6 m/s 749 mmHg 65%
    14:00 +20°C° 0 mm 5 m/s 749 mmHg 64%
    15:00 +19°C° 0 mm 5 m/s 749 mmHg 65%
    16:00 +17°C° 0 mm 5 m/s 749 mmHg 65%
    17:00 +18°C° 0 mm 4 m/s 749 mmHg 66%
    18:00 +17°C° 0 mm 4 m/s 749 mmHg 68%
    19:00 +16°C° 0 mm 3 m/s 749 mmHg 71%
    20:00 +13°C° 0 mm 3 m/s 750 mmHg 73%
    21:00 +13°C° 0 mm 3 m/s 750 mmHg 71%
    22:00 +12°C° 0 mm 3 m/s 750 mmHg 70%
    23:00 +11°C° 0 mm 3 m/s 750 mmHg 68%

    29 Septembrie, Sâmbătă

    Timp Temperatura Precipitaţii Vânt Presiune Umiditate
    00:00 +11°C° 0 mm 3 m/s 751 mmHg 69%
    01:00 +10°C° 0 mm 3 m/s 751 mmHg 69%
    02:00 +10°C° 0 mm 3 m/s 751 mmHg 70%
    03:00 +9°C° 0.2 mm 3 m/s 751 mmHg 73%
    04:00 +9°C° 0.2 mm 2 m/s 751 mmHg 76%
    05:00 +9°C° 0.2 mm 2 m/s 752 mmHg 80%
    06:00 +8°C° 0.2 mm 2 m/s 752 mmHg 80%
    07:00 +8°C° 0.2 mm 3 m/s 753 mmHg 80%
    08:00 +8°C° 0.2 mm 3 m/s 753 mmHg 80%
    09:00 +9°C° 0 mm 3 m/s 754 mmHg 72%
    10:00 +10°C° 0 mm 4 m/s 754 mmHg 64%
    11:00 +11°C° 0 mm 4 m/s 754 mmHg 56%
    12:00 +12°C° 0 mm 4 m/s 755 mmHg 51%
    13:00 +12°C° 0 mm 4 m/s 755 mmHg 47%
    14:00 +12°C° 0 mm 4 m/s 755 mmHg 42%
    15:00 +12°C° 0 mm 4 m/s 755 mmHg 44%
    16:00 +12°C° 0 mm 4 m/s 755 mmHg 45%
    17:00 +11°C° 0 mm 3 m/s 755 mmHg 46%
    18:00 +10°C° 0 mm 3 m/s 756 mmHg 50%
    19:00 +9°C° 0 mm 2 m/s 756 mmHg 53%
    20:00 +8°C° 0 mm 2 m/s 757 mmHg 57%
    21:00 +7°C° 0 mm 2 m/s 757 mmHg 59%
    22:00 +8°C° 0 mm 1 m/s 757 mmHg 61%
    23:00 +7°C° 0 mm 1 m/s 757 mmHg 63%
    Arată mai mult